Manston, United Kingdom

11:39 AM GMT on December 05, 2016 (GMT +0000)
Manston

Weather History for EGMH - May, 2013

Change the Weather History Date:

Thursday, May 16, 2013

  Actual Average Record
Temperature  
Mean Temperature 48 °F -  
Max Temperature 55 °F - - ()
Min Temperature 41 °F - - ()
Degree Days  
Heating Degree Days 17    
Moisture  
Dew Point 44 °F    
Average Humidity 80    
Maximum Humidity 100    
Minimum Humidity 49    
Precipitation  
Precipitation 0.00 in - - ()
Sea Level Pressure  
Sea Level Pressure 29.54 in    
Wind  
Wind Speed 8 mph ()    
Max Wind Speed 16 mph    
Max Gust Speed -    
Visibility 7.1 miles    
Events      
T = Trace of Precipitation, MM = Missing Value Source: Averaged Metar Reports

Daily Weather History Graph

Daily Weather History Graph

Search for Another Location

Airport or City:

Trip Planner

Search our weather history database for the weather conditions in past years. The results will help you decide how hot, cold, wet, or windy it might be!

Date:

Astronomy

May. 16, 2013 Rise Set
Actual Time 5:01 AM BST 8:41 PM BST
Civil Twilight 4:20 AM BST 9:22 PM BST
Nautical Twilight 3:23 AM BST 10:19 PM BST
Astronomical Twilight 1:58 AM BST 11:47 PM BST
Moon 10:32 AM BST (5/16) 12:43 AM BST (5/16)
Length of Visible Light 17h 02m
Length of Day
15h 39m
Waxing Crescent, 33% of the Moon is Illuminated
May 16
Waxing Crescent
May 18
First Quarter
May 25
Full
May 31
Last Quarter
Jun 8
New

Hourly Weather History & Observations

Time (BST) Temp. Windchill Dew Point Humidity Pressure Visibility Wind Dir Wind Speed Gust Speed Precip Events Conditions
12:50 AM 43 °F - 42 °F 96% 29.57 in 6 mi SE 10.4 mph - -   Mist
3:50 AM 43 °F - 43 °F 98% 29.56 in 5 mi South 4.6 mph - -   Mist
5:20 AM 42.8 °F 39.3 °F 41.0 °F 93% 29.53 in 6.2 mi SSE 5.8 mph - N/A   Partly Cloudy
5:50 AM 42.8 °F 39.3 °F 42.8 °F 100% 29.56 in 6.2 mi SSE 5.8 mph - N/A   Partly Cloudy
6:20 AM 44.6 °F 42.2 °F 42.8 °F 93% 29.56 in 6.2 mi SSE 4.6 mph - N/A   Partly Cloudy
6:50 AM 46 °F - 45 °F 96% 29.56 in 5 mi SSE 5.8 mph - -   Mist
6:50 AM 46.4 °F 43.5 °F 44.6 °F 93% 29.56 in 6.2 mi SSE 5.8 mph - N/A   Partly Cloudy
7:20 AM 46.4 °F 43.5 °F 44.6 °F 93% 29.56 in 6.2 mi South 5.8 mph - N/A   Partly Cloudy
7:50 AM 48.2 °F - 46.4 °F 93% 29.56 in 6.2 mi SSE 9.2 mph - N/A   Partly Cloudy
8:20 AM 50.0 °F - 46.4 °F 87% 29.56 in 6.2 mi SSE 9.2 mph - N/A   Partly Cloudy
8:50 AM 50.0 °F - 46.4 °F 87% 29.56 in 6.2 mi SSE 10.4 mph - N/A   Partly Cloudy
9:20 AM 50.0 °F - 44.6 °F 82% 29.56 in 6.2 mi SSE 10.4 mph - N/A   Mostly Cloudy
9:50 AM 51 °F - 46 °F 78% 29.57 in 13 mi SSE 8.1 mph - -   Scattered Clouds
9:50 AM 51.8 °F - 44.6 °F 76% 29.56 in 6.2 mi SSE 8.1 mph - N/A   Mostly Cloudy
10:20 AM 53.6 °F - 46.4 °F 77% 29.56 in 6.2 mi South 5.8 mph - N/A   Mostly Cloudy
10:50 AM 53.6 °F - 44.6 °F 72% 29.53 in 6.2 mi SSE 5.8 mph - N/A   Partly Cloudy
11:20 AM 53.6 °F - 44.6 °F 72% 29.53 in 6.2 mi SE 6.9 mph - N/A   Partly Cloudy
11:50 AM 53.6 °F - 44.6 °F 72% 29.53 in 6.2 mi ESE 8.1 mph - N/A   Partly Cloudy
12:20 PM 55.4 °F - 42.8 °F 63% 29.53 in 6.2 mi ESE 10.4 mph - N/A   Partly Cloudy
12:50 PM 55 °F - 41 °F 49% 29.54 in 19 mi SE 10.4 mph - -   Scattered Clouds
12:50 PM 55.4 °F - 41.0 °F 58% 29.53 in 6.2 mi ESE 9.2 mph - N/A   Partly Cloudy
1:20 PM 53.6 °F - 39.2 °F 58% 29.53 in 6.2 mi ESE 10.4 mph - N/A   Partly Cloudy
1:50 PM 55.4 °F - 41.0 °F 58% 29.53 in 6.2 mi ESE 11.5 mph - N/A   Partly Cloudy
2:20 PM 55.4 °F - 41.0 °F 58% 29.53 in 6.2 mi ESE 11.5 mph - N/A   Partly Cloudy
2:50 PM 53.6 °F - 44.6 °F 72% 29.53 in 6.2 mi East 11.5 mph - N/A   Partly Cloudy
3:20 PM 53.6 °F - 46.4 °F 77% 29.53 in 6.2 mi East 12.7 mph - N/A   Partly Cloudy
3:50 PM 53 °F - 47 °F 74%  in 11 mi East 12.7 mph - -   Overcast
3:50 PM 53.6 °F - 46.4 °F 77% 29.53 in 6.2 mi East 13.8 mph - N/A   Partly Cloudy
4:20 PM 53.6 °F - 46.4 °F 77% 29.53 in 6.2 mi East 11.5 mph - N/A   Partly Cloudy
4:50 PM 51.8 °F - 46.4 °F 82% 29.53 in 6.2 mi East 13.8 mph - N/A   Partly Cloudy
5:20 PM 51.8 °F - 46.4 °F 82% 29.53 in 6.2 mi East 16.1 mph - N/A   Scattered Clouds
5:50 PM 50.0 °F - 46.4 °F 87% 29.53 in 6.2 mi East 13.8 mph - N/A   Scattered Clouds
6:20 PM 51.8 °F - 46.4 °F 82% 29.53 in 6.2 mi East 13.8 mph - N/A   Scattered Clouds
6:50 PM 49 °F - 46 °F 85% 29.55 in 14 mi East 13.8 mph - -   Scattered Clouds
6:50 PM 50.0 °F - 46.4 °F 87% 29.53 in 6.2 mi ESE 11.5 mph - N/A   Scattered Clouds
7:20 PM 50.0 °F - 44.6 °F 82% 29.53 in 6.2 mi East 12.7 mph - N/A   Scattered Clouds
7:50 PM 48.2 °F - 44.6 °F 87% 29.53 in 6.2 mi East 13.8 mph - N/A   Scattered Clouds
8:20 PM 48.2 °F - 44.6 °F 87% 29.56 in 6.2 mi East 12.7 mph - N/A   Scattered Clouds
9:50 PM 47 °F - 45 °F 90% 29.57 in 13 mi East 8.1 mph - -   Mostly Cloudy